Lid_Strength_Index
0 -0 -0 -0 -0 -0 -1 -1 -0 1 2 2 2 1 1 1 1 6 9 6 4 2 2 5 7 8 7 8 8 10 15 16 16 15 15 13 14 13 13 14 13 12 12 10 8
1 0 0 0 0 -0 -1 -0 -0 0 1 2 2 2 1 1 6 8 4 2 2 2 6 9 10 9 11 11 10 12 15 15 15 16 15 13 13 14 14 14 14 13 10 8 8
1 1 1 0 0 0 -0 -0 -0 1 1 2 2 2 2 4 9 10 3 2 2 3 5 7 8 8 11 11 12 12 14 13 13 12 13 13 14 13 14 15 14 14 11 9 9
1 1 0 0 0 -0 -0 -0 0 1 1 2 2 2 2 7 14 9 3 3 2 4 6 8 10 11 12 12 11 13 12 12 11 11 12 13 12 13 13 13 12 12 9 9 9
1 1 1 0 0 0 0 0 1 1 2 3 2 1 6 11 12 8 3 5 6 6 8 9 11 12 13 12 12 13 12 11 11 12 12 11 13 13 13 12 11 10 10 9 9
1 1 1 0 0 0 1 1 1 2 2 3 2 2 9 13 8 8 7 7 7 8 9 9 10 10 12 12 13 12 12 12 12 12 11 13 14 13 13 12 12 11 11 10 9
1 1 1 0 0 0 1 2 2 3 3 3 3 7 11 12 9 8 7 8 7 8 9 8 9 10 11 13 11 12 14 13 13 12 13 13 15 14 13 11 12 11 11 11 10
1 1 1 0 0 1 1 2 3 3 3 3 3 9 13 9 10 8 8 8 7 7 8 8 8 10 11 11 12 14 14 17 13 12 12 14 17 13 13 13 12 12 12 11 10
1 1 1 1 2 1 1 1 3 3 3 3 9 11 14 7 10 9 9 9 8 8 8 8 9 12 11 13 15 14 17 17 15 12 13 15 16 13 13 13 13 13 13 12 11
1 1 1 1 2 2 2 1 2 4 5 6 8 11 11 13 10 9 9 8 9 9 9 10 12 14 15 15 18 19 18 17 17 15 15 16 16 14 12 13 14 14 13 12 11
1 1 1 1 1 2 4 5 9 9 11 13 13 12 12 10 9 9 9 9 10 11 15 13 15 19 18 17 16 16 17 18 15 14 16 17 17 14 13 14 14 15 14 13 12
1 2 2 2 2 2 6 9 10 10 13 11 12 11 11 10 11 10 8 11 13 15 13 13 18 14 13 13 15 17 18 19 16 15 16 17 17 15 14 14 14 14 15 13 12
2 2 2 2 2 6 9 9 7 8 11 12 12 12 12 10 11 12 10 11 15 17 16 15 15 13 14 16 16 17 19 19 19 17 17 18 20 16 15 14 13 13 13 13 12
2 2 2 1 4 6 9 7 6 7 17 13 12 11 10 10 12 9 9 11 13 18 16 16 13 14 15 16 16 18 16 16 17 22 24 18 25 19 17 16 14 14 14 13 13
2 3 2 1 6 8 7 5 7 8 22 12 12 9 9 10 10 10 8 10 14 16 16 16 15 16 16 16 15 17 15 17 18 23 23 21 25 20 17 17 15 15 14 13 12
3 3 2 4 6 6 5 6 8 16 22 16 11 11 12 9 10 9 9 9 10 12 13 15 12 14 15 14 14 14 17 18 19 25 27 25 23 21 18 16 15 14 14 13 13
3 3 4 5 8 5 5 8 15 20 14 16 14 12 13 13 11 11 11 12 15 19 17 15 15 14 12 16 14 16 22 25 23 24 25 28 24 20 16 15 14 14 14 14 13
2 2 4 5 5 5 7 13 21 16 19 11 12 12 14 13 13 12 13 16 13 15 20 22 21 17 13 15 16 17 20 22 27 25 24 27 24 17 14 15 14 13 14 13 13
2 5 6 6 4 5 11 20 19 16 12 14 12 17 17 13 15 15 15 15 14 15 19 21 19 14 14 13 15 17 23 17 25 30 27 23 19 15 15 18 15 15 14 14 13
6 6 7 5 5 8 15 17 17 11 10 12 16 15 20 14 15 17 16 13 14 14 15 16 22 17 14 13 15 17 16 22 24 27 29 24 25 18 19 20 19 16 15 15 13
6 11 6 4 7 12 20 19 14 10 9 13 14 16 15 18 16 17 15 13 13 14 13 16 20 20 16 20 20 20 22 22 21 20 24 27 22 18 17 20 17 16 16 16 15
8 17 6 6 15 13 15 13 11 11 10 11 12 13 15 15 16 19 15 14 12 14 16 14 17 23 19 15 14 16 19 18 22 24 22 22 22 17 18 21 21 18 16 16 17
13 12 7 7 19 17 12 13 12 12 12 13 14 12 12 17 19 14 14 12 11 13 15 14 21 26 21 18 17 19 16 16 19 18 23 24 20 19 22 20 19 20 17 16 16
11 18 14 10 11 16 15 15 15 12 12 12 12 12 13 18 14 18 14 13 12 12 10 12 16 21 22 22 21 21 18 16 18 26 21 19 17 17 17 19 18 18 16 15 14
12 14 14 21 15 14 14 14 16 17 12 12 15 13 16 20 17 20 15 14 13 11 12 14 17 17 17 18 19 17 18 18 19 18 20 16 17 14 13 12 11 13 16 18 14
14 15 14 14 13 14 14 15 15 15 13 15 16 14 13 17 15 16 14 14 14 14 14 14 17 21 20 16 15 17 16 16 16 16 17 16 16 11 11 16 17 15 12 13 15
10 9 12 14 14 17 16 14 14 13 13 12 13 13 13 13 12 11 11 11 11 13 14 15 17 21 20 19 20 21 18 16 16 15 15 18 15 12 13 15 14 14 14 14 14